User: anonymous   Login
Location: Plymouth
(43.7570°N, 71.6890°W)
Time: 06:22:26
(UTC-05:00)
Language:

Meteor 1-28 Rocket - Orbit

View from above orbital plane
View from above orbital plane
View from above satellite
View from above satellite

Ground track
Ground track

The orbit data is extracted from the following two-line orbital elements,

1 10114U 77057B   14354.54515195  .00006614  00000-0  36359-3 0  4255
2 10114 097.2454 206.0896 0013210 252.2908 107.6883 15.14330588 45758
Epoch (UTC): 20 December 2014 13:05:01
Eccentricity: 0.0013210
inclination: 97.2454°
perigee height: 514 km
apogee height: 532 km
right ascension of ascending node: 206.0896°
argument of perigee: 252.2908°
revolutions per day: 15.14330588
mean anomaly at epoch: 107.6883°
orbit number at epoch: 4575

The dashed part of the orbit path shows where the satellite is in the earth's shadow,  

DLR